Hourly Data Report for April 10, 2020

TORONTO CITY
ONTARIO
Current Station Operator: ECCC - MSC

43°40'00.000" N
79°24'00.000" W
112.50 m
6158355
71508
XTO

Download Data

Hourly Data (April 2020)
Hourly Data Report for April 10, 2020
TIME
LST
Temp Definition
°C
Dew Point Definition
°C
Rel Hum Definition
%
Precip. Amount Definition
mm

Wind Dir Definition
10's deg

Wind Spd Definition
km/h
Visibility Definition
km
Stn Press Definition
kPa
Hmdx Definition


Wind Chill Definition


Weather Definition


00:00 3.1 -2.3 68 0.0       98.23     LegendNANA
01:00 2.8 -2.8 67 0.0       98.24     LegendNANA
02:00 2.1 -4.3 63 0.0       98.23     LegendNANA
03:00 2.0 -4.7 61 0.0       98.23     LegendNANA
04:00 1.9 -4.8 61 0.0       98.29     LegendNANA
05:00 2.0 -4.1 64 0.0       98.33     LegendNANA
06:00 2.1 -4.2 63 0.0       98.44     LegendNANA
07:00 1.6 -3.7 68 0.0       98.57     LegendNANA
08:00 1.9 -3.1 69 0.0       98.67     LegendNANA
09:00 3.6 -3.6 59 0.0       98.76     LegendNANA
10:00 4.4 -4.9 51 0.0       98.87     LegendNANA
11:00 6.0 -5.4 44 0.0       98.94     LegendNANA
12:00 7.3 -4.4 43 0.0       98.99     LegendNANA
13:00 7.2 -6.0 38 0.0       99.04     LegendNANA
14:00 7.2 -5.4 40 0.0       99.10     LegendNANA
15:00 6.4 -5.1 44 0.0       99.17     LegendNANA
16:00 6.6 -5.9 40 0.0       99.24     LegendNANA
17:00 6.2 -7.2 37 0.0       99.32     LegendNANA
18:00 5.1 -7.4 40 0.2       99.43     LegendNANA
19:00 4.2 -8.4 40 0.0       99.53     LegendNANA
20:00 3.4 -8.7 41 0.0       99.59     LegendNANA
21:00 3.0 -8.9 41 0.0       99.66     LegendNANA
22:00 2.3 -8.7 44 0.0       99.68     LegendNANA
23:00 2.0 -8.4 46 0.0       99.71     LegendNANA

Notes on Data Quality.

Legend

  • E = Estimated
  • M = Missing
  • NA = Not Available*
  • [empty] = Indicates an unobserved value
Date modified: